User: anonymous   Login
Location: Unspecified
(0.0000°N, 0.0000°E)
Time: 18:07:21
(UTC+00:00)
Language:

COSMOS-2409 - Orbit

View from above orbital plane
View from above orbital plane
View from above satellite
View from above satellite

Ground track
Ground track

The orbit data is extracted from the following two-line orbital elements,

1 28420U 04037B   19016.72857567 -.00000003  00000-0 -92452-4 0  9995
2 28420  82.4826 224.5004 0014280  92.2409 268.0307 12.45273217650715
Epoch (UTC): 16 January 2019 17:29:08
Eccentricity: 0.0014280
inclination: 82.4826°
perigee height: 1473 km
apogee height: 1495 km
right ascension of ascending node: 224.5004°
argument of perigee: 92.2409°
revolutions per day: 12.45273217
mean anomaly at epoch: 268.0307°
orbit number at epoch: 65071

The dashed part of the orbit path shows where the satellite is in the earth's shadow,  

DLR